Regional Weather Roundup
Issued by NWS

Home | Current Version | Previous Version | Graphics & Text | Print | Product List | Glossary On
Versions: 1 2 3 4 5 6 7 8 9 10 11 12 13 14 15 16 17 18 19 20 21 22 23 24 25 26 27 28 29 30 31 32 33 34 35 36 37 38 39 40 41 42 43 44 45 46 47 48 49 50
060
ASUS44 KLIX 222205
RWRLA
LOUISIANA WEATHER ROUNDUP
NATIONAL WEATHER SERVICE NEW ORLEANS LA
500 PM CDT TUE JUL 22 2014

NOTE: "FAIR" INDICATES FEW OR NO CLOUDS BELOW 12,000 FEET WITH NO
      SIGNIFICANT WEATHER AND/OR OBSTRUCTIONS TO VISIBILITY.
      SKY/WX - SKY CONDITION AND SIGNIFICANT WEATHER.
      TMP - AIR TEMPERATURE.    DP   - DEWPOINT TEMPERATURE.
      RH  - RELATIVE HUMIDITY.  PRES - PRESSURE.
      HX  - HEAT INDEX.         WCI  - WIND CHILL INDEX.

*  THESE STATIONS ARE NOT NWS OR FAA STATIONS AND ARE NOT UNDER
   NWS QUALITY CONTROL.

LAZ040-048-061>063-065-066-069-222300-
SOUTHEAST LOUISIANA

CITY           SKY/WX    TMP DP  RH WIND       PRES   REMARKS
N.O. AUDUBON     N/A     88  71  58 MISG        N/A
N.O. INTL ARPT PTSUNNY   86  73  65 S12       30.00R
N.O. LAKEFRONT CLOUDY    84  71  65 S6        30.01S
N.O. DOWNTOWN* MOCLDY    88  70  55 S10       30.01S
SLIDELL        LGT RAIN  83  74  74 N5        29.99S
BATON ROUGE    LGT RAIN  86  72  62 CALM      29.98F
BOOTHVILLE     LGT RAIN  76  71  85 SE7       30.02F
BELLE CHASSE   PTSUNNY   84  70  61 S8        30.01R
BOGALUSA*      RAIN      75  70  84 CALM      30.03R
GALLIANO*      NOT AVBL
NEW ROADS*     FAIR      87  74  63 NW8       29.99F HX  95
GONZALES*      FAIR      89  69  52 E3        29.98F
HAMMOND*       CLOUDY    90  66  45 NE7       30.00F
HOUMA*         MOSUNNY   81  72  74 E6        30.01F FOG
PORT FOURCHON* PTCLDY    84  75  74 N12       30.03R

$$

LAZ041-044-053-054-222300-
SOUTHWEST LOUISIANA

CITY           SKY/WX    TMP DP  RH WIND       PRES   REMARKS
LAKE CHARLES   MOSUNNY   92  71  50 N7        29.99F HX  98
LAFAYETTE      MOSUNNY   89  68  49 N7        29.99F
PATTERSON      MOSUNNY   90  73  58 N7        30.03S HX  98
SALT POINT       N/A     88  77  69 SE3       29.98F HX 100
NEW IBERIA     MOSUNNY   91  68  46 CALM      29.99F HX  95
CHENAULT AIRPK MOSUNNY   90  70  51 N7        30.00F HX  95

$$

LAZ027-028-222300-
CENTRAL LOUISIANA

CITY           SKY/WX    TMP DP  RH WIND       PRES   REMARKS
FORT POLK      SUNNY     89  66  46 NE6       30.02S
ALEXANDRIA INT PTSUNNY   92  68  45 NE5       29.99S HX  96
ALEXANDRIA     SUNNY     90  70  51 VRB3      30.01F HX  95

$$

LAZ001-002-222300-
NORTHWEST LOUISIANA

CITY           SKY/WX    TMP DP  RH WIND       PRES   REMARKS
SHREVEPORT     MOSUNNY   91  67  44 N3        30.03F
BARKSDALE AFB  MOSUNNY   89  69  52 VRB2      30.04F
DTN SHREVEPORT MOSUNNY   90  67  46 N5        30.03F

$$

LAZ014-016-222300-
NORTHEAST LOUISIANA

CITY           SKY/WX    TMP DP  RH WIND       PRES   REMARKS
MONROE         MOSUNNY   91  68  46 E7        30.03F HX  95
TALLULAH       PTSUNNY   82  73  74 NW3       30.02S

$$




USA.gov is the U.S. government's official web portal to all federal, state and local government web resources and services.